Wind_Speed
10 10 10 11 10 10 10 9 9 8 8 8 8 8 8 9 10 10 9 9 9 9 9 8 8 8 8 8 8 8 8 8 8 8 8 8 9 9 10 10 11 11 11
9 10 10 10 10 10 10 10 9 9 9 9 9 9 9 9 9 9 9 9 10 9 9 9 9 9 9 9 8 8 9 9 9 9 9 9 9 10 10 11 11 12 12
9 9 10 10 10 10 10 10 9 9 10 10 10 10 10 11 11 10 9 10 10 10 10 10 10 10 10 9 9 9 9 9 9 10 10 10 10 10 11 11 11 11 12
9 9 10 10 11 11 10 10 10 10 10 11 11 10 11 11 11 11 10 10 10 11 11 11 11 10 10 10 9 9 9 9 9 10 10 10 10 10 11 11 12 12 12
9 10 10 10 11 11 11 11 11 11 11 11 11 11 12 12 12 12 12 11 11 11 11 10 10 10 10 9 9 9 10 10 10 10 10 10 10 11 11 12 12 12 12
10 10 11 11 11 12 12 11 11 11 11 12 12 12 13 13 13 13 13 12 12 12 11 11 11 11 11 10 10 10 10 10 10 11 11 11 11 12 12 13 13 13 14
11 10 11 12 12 12 12 12 12 12 12 12 12 13 13 13 13 13 12 12 13 12 12 12 12 12 11 11 11 11 11 11 12 12 12 12 12 12 12 12 13 13 14
12 12 12 12 12 13 13 14 14 14 14 13 13 13 13 13 13 13 13 13 13 13 12 13 13 13 12 12 12 12 13 13 13 13 13 13 13 13 13 13 13 14 14
13 13 13 13 13 14 14 14 14 14 14 15 14 14 14 14 15 14 14 14 15 14 14 14 14 14 14 14 14 14 15 15 15 15 14 14 14 14 13 13 14 14 14
14 14 15 14 14 15 15 15 16 15 16 16 16 16 15 16 16 16 15 15 15 15 15 15 15 15 15 15 15 15 15 15 15 15 15 15 15 15 15 15 14 14 14
15 15 15 16 16 16 16 16 16 16 16 16 16 16 16 16 17 17 16 16 16 16 16 16 16 16 15 15 15 16 16 16 15 15 15 16 16 16 16 15 15 15 15
16 16 16 17 17 18 17 17 17 17 17 17 18 18 17 17 17 17 17 17 17 17 17 16 16 16 16 16 16 17 16 16 16 16 16 16 16 16 16 15 15 15 15
17 17 17 18 18 18 18 18 17 17 18 18 18 18 18 18 18 18 17 17 18 18 17 17 17 17 17 17 17 18 17 17 17 17 17 17 17 17 17 16 16 15 15
19 19 18 19 19 20 19 19 18 18 18 19 19 19 19 19 19 19 18 18 18 18 18 18 18 18 18 18 18 19 19 19 19 18 18 18 18 18 18 17 17 16 16
20 20 20 20 20 20 21 20 20 20 20 20 20 20 20 19 19 19 19 19 19 19 19 19 19 19 19 19 19 19 19 19 20 19 19 19 19 19 19 18 17 17 17
22 22 21 21 21 21 21 22 21 21 21 22 22 21 21 21 21 20 20 20 19 19 19 19 19 19 19 19 19 20 20 20 20 20 20 20 20 20 20 19 18 18 18
24 23 23 23 22 22 22 23 22 22 22 23 23 22 23 22 21 21 21 21 20 20 20 20 20 20 20 20 20 20 21 21 21 21 21 21 22 22 22 21 20 20 20
25 25 25 24 24 24 24 24 24 24 24 23 23 23 23 23 22 22 22 22 22 22 21 21 21 21 21 21 21 22 22 22 22 22 22 22 22 22 22 22 22 22 21
26 26 26 26 26 26 26 26 25 25 25 25 25 24 24 23 24 23 23 23 23 23 22 22 22 22 22 22 23 23 23 23 23 23 23 23 23 23 23 23 23 22 22
27 27 27 27 27 27 27 27 27 26 26 26 26 26 25 25 25 25 25 25 25 24 24 24 24 24 24 24 24 24 24 24 24 24 24 24 24 23 24 24 24 24 24
28 28 28 28 28 28 28 28 28 28 28 28 27 27 27 27 27 27 27 27 26 26 26 26 26 26 26 26 26 26 26 25 25 25 25 25 24 24 24 24 24 24 25
29 29 29 29 30 29 29 29 29 29 30 30 29 29 29 29 28 28 28 28 28 28 28 27 27 27 27 28 28 28 27 27 27 26 26 25 25 25 24 25 25 25 26
30 30 30 30 31 31 31 30 31 30 30 31 31 30 30 30 29 29 29 29 29 30 30 29 29 29 29 28 28 28 28 27 27 26 26 26 26 26 26 26 27 27 27
30 30 31 31 32 32 32 31 31 31 31 31 31 31 32 31 31 31 31 31 31 31 31 31 31 30 30 29 29 29 29 29 28 28 28 28 28 27 26 27 27 28 28
31 31 31 32 32 32 33 33 32 32 32 31 31 32 32 32 32 32 32 32 32 32 32 32 32 32 31 31 31 31 31 31 30 30 29 29 29 29 28 28 28 28 28
31 31 31 32 32 32 32 33 33 33 33 33 32 32 33 33 34 34 34 35 34 34 34 34 34 33 33 33 33 33 32 31 31 30 30 30 30 30 29 29 29 29 29
Wind_Direction
266 261 260 262 262 262 264 263 267 267 266 265 264 269 272 273 273 270 269 267 268 273 275 274 277 279 279 278 280 277 276 278 280 282 279 277 273 269 267 265 266 268 269
263 261 263 262 262 262 264 266 265 264 266 267 267 269 270 271 270 266 268 270 268 269 272 273 274 275 274 275 275 274 276 278 280 283 283 278 275 272 270 269 270 270 270
267 269 269 265 263 264 264 265 265 266 267 268 269 266 271 271 268 268 268 270 271 270 273 274 273 272 270 269 272 276 276 278 281 283 284 281 276 274 274 272 273 274 274
266 269 272 273 268 266 266 267 269 269 271 271 271 272 273 271 268 267 269 269 270 272 274 274 272 272 271 269 272 277 279 282 284 285 284 283 280 275 273 275 275 275 274
267 268 271 274 274 272 272 271 269 269 272 274 273 276 274 272 269 267 267 267 269 270 272 273 273 272 271 271 272 277 281 283 285 285 284 283 283 283 277 275 274 273 272
269 271 273 275 276 275 274 273 272 272 273 274 275 276 275 273 270 269 266 264 265 266 267 268 269 268 268 270 273 278 281 283 285 285 283 281 280 281 279 277 274 271 272
272 274 274 275 275 274 274 272 271 269 271 273 273 275 275 274 271 269 268 265 264 266 269 267 267 271 271 270 272 276 279 282 285 284 281 280 282 280 279 278 275 271 271
273 276 278 278 278 277 275 273 270 269 270 272 272 273 274 273 271 270 267 266 268 267 268 269 270 271 270 271 272 275 277 280 282 282 280 279 282 282 280 278 275 274 274
273 276 278 280 279 279 277 275 273 273 273 273 272 272 272 271 270 270 269 268 268 267 269 270 271 270 269 272 273 275 277 279 279 279 279 279 281 282 283 279 278 276 275
276 275 275 276 279 279 277 277 275 275 275 274 273 273 273 272 271 269 270 270 267 265 268 269 269 270 271 273 275 276 278 280 279 280 281 280 280 281 280 280 278 276 274
273 274 274 276 276 276 276 275 275 276 277 276 275 273 275 274 273 271 271 271 269 266 266 268 269 270 271 272 275 277 278 280 279 279 280 280 279 280 279 278 277 275 274
274 275 275 275 274 274 275 275 274 274 275 276 275 274 275 273 273 272 269 269 267 265 265 267 268 268 270 273 274 276 279 280 279 280 280 280 279 279 278 276 275 275 274
274 276 276 273 272 273 274 275 273 273 273 275 276 275 275 275 275 273 270 267 265 264 267 270 270 269 270 273 275 276 278 278 279 280 280 279 278 277 277 276 275 274 273
273 274 275 273 272 272 273 273 272 273 274 274 275 275 275 275 274 271 269 268 266 264 267 270 270 270 271 273 275 277 279 278 278 280 280 279 277 276 275 274 271 272 271
273 275 275 276 275 273 272 272 272 272 273 274 275 275 274 273 272 271 267 265 266 263 266 268 269 269 271 273 275 276 277 278 278 279 280 280 278 276 275 273 271 272 271
272 274 275 276 275 274 273 272 272 273 274 274 274 273 273 272 271 270 268 265 264 264 266 267 268 270 271 272 274 276 276 277 278 278 278 279 278 275 272 271 271 271 271
270 271 273 274 274 273 272 272 272 274 275 274 272 272 271 270 269 269 268 265 264 266 267 267 269 269 270 272 274 276 277 276 276 276 277 276 275 275 272 270 270 271 271
269 270 271 272 272 272 271 271 272 273 274 273 272 273 272 269 268 267 266 265 265 266 267 267 267 268 270 272 274 277 276 276 276 276 276 275 274 274 273 270 269 271 271
269 270 271 272 272 272 271 271 272 272 272 272 271 272 272 271 268 266 265 265 264 266 266 266 267 267 269 271 274 276 277 277 276 274 274 275 275 274 272 270 270 271 270
269 269 270 271 272 272 271 270 271 271 272 272 271 270 270 271 270 267 265 264 266 267 267 267 267 268 269 273 275 275 275 276 276 275 274 274 274 272 271 269 269 270 271
270 270 270 271 272 272 271 271 271 271 271 270 270 270 270 269 269 267 264 263 264 266 267 268 268 269 271 273 275 274 275 275 274 274 273 273 273 271 270 269 269 270 271
269 270 270 270 271 272 272 271 270 270 270 269 268 267 268 268 267 266 264 262 263 265 266 268 268 269 270 272 274 274 274 275 275 274 274 274 273 272 271 271 272 271 271
269 269 270 270 271 271 272 271 270 270 270 269 267 266 265 264 264 264 265 265 265 265 266 266 267 268 269 270 272 274 274 273 273 272 273 275 275 275 273 273 273 272 272
270 269 269 269 270 270 271 271 270 269 268 267 266 266 265 264 264 264 266 266 266 265 266 266 267 268 268 269 270 272 273 272 272 272 272 274 274 273 273 273 274 274 273
271 271 270 270 270 270 270 270 270 268 268 267 265 265 265 264 264 265 266 266 266 266 267 267 267 268 268 269 270 272 272 272 272 272 272 272 272 272 272 273 273 274 273
273 273 272 271 271 270 269 269 268 268 267 266 265 266 266 266 266 265 265 266 266 267 267 267 267 268 268 268 269 270 270 269 269 270 271 271 271 271 271 271 272 274 273
Height
5864 5864 5864 5864 5863 5863 5863 5863 5862 5862 5862 5861 5861 5861 5860 5860 5860 5859 5859 5859 5859 5858 5858 5858 5857 5857 5857 5856 5856 5855 5854 5854 5854 5853 5852 5851 5851 5850 5850 5849 5849 5848 5847
5862 5862 5862 5861 5861 5861 5861 5860 5860 5859 5859 5859 5858 5858 5858 5857 5857 5857 5856 5856 5856 5856 5856 5856 5855 5855 5855 5854 5854 5853 5852 5852 5851 5851 5850 5850 5849 5848 5847 5847 5846 5846 5845
5859 5860 5859 5859 5859 5859 5858 5858 5857 5857 5856 5856 5856 5855 5855 5855 5854 5854 5854 5854 5853 5853 5853 5853 5853 5852 5852 5852 5851 5851 5850 5849 5849 5848 5848 5847 5846 5846 5845 5844 5843 5843 5842
5857 5857 5857 5856 5856 5856 5855 5855 5854 5854 5854 5853 5853 5853 5852 5852 5851 5851 5851 5851 5851 5851 5850 5850 5850 5849 5849 5849 5849 5848 5848 5847 5846 5845 5845 5844 5843 5843 5842 5841 5840 5840 5839
5854 5854 5854 5854 5853 5853 5852 5852 5852 5851 5851 5850 5850 5849 5849 5848 5848 5848 5848 5848 5848 5848 5847 5847 5847 5847 5846 5846 5846 5845 5845 5844 5844 5843 5842 5841 5840 5839 5839 5838 5838 5837 5836
5851 5851 5851 5851 5850 5850 5849 5849 5848 5848 5848 5847 5847 5846 5845 5845 5845 5844 5844 5844 5844 5844 5844 5844 5844 5844 5843 5843 5843 5842 5842 5841 5841 5840 5839 5838 5837 5836 5835 5835 5834 5833 5832
5849 5848 5848 5848 5847 5847 5846 5846 5845 5845 5844 5844 5843 5842 5842 5841 5841 5841 5841 5841 5841 5841 5841 5841 5840 5840 5840 5840 5839 5839 5839 5838 5837 5836 5835 5834 5833 5833 5832 5831 5830 5829 5829
5845 5845 5845 5844 5844 5843 5842 5842 5841 5841 5841 5840 5840 5839 5838 5838 5837 5837 5837 5837 5837 5837 5837 5837 5837 5836 5836 5836 5835 5835 5834 5834 5833 5832 5831 5830 5830 5829 5828 5827 5826 5826 5825
5842 5841 5841 5841 5840 5839 5839 5838 5838 5837 5837 5836 5836 5835 5834 5834 5833 5833 5832 5832 5833 5833 5833 5833 5832 5832 5832 5831 5831 5830 5830 5829 5829 5828 5827 5826 5825 5824 5824 5823 5822 5822 5821
5838 5838 5837 5837 5836 5836 5835 5834 5834 5833 5833 5832 5831 5831 5830 5830 5829 5829 5828 5828 5828 5828 5828 5828 5828 5827 5827 5827 5826 5826 5825 5825 5824 5823 5822 5822 5821 5820 5819 5818 5818 5817 5817
5834 5834 5833 5833 5832 5832 5831 5830 5829 5829 5828 5827 5827 5827 5826 5825 5825 5824 5824 5823 5823 5823 5823 5823 5823 5823 5822 5822 5822 5821 5821 5820 5820 5819 5818 5817 5816 5815 5815 5814 5813 5813 5812
5830 5829 5829 5828 5828 5827 5826 5826 5825 5824 5824 5823 5822 5822 5821 5821 5820 5819 5819 5819 5819 5819 5819 5819 5818 5818 5818 5817 5817 5816 5816 5815 5815 5814 5813 5812 5811 5811 5810 5809 5809 5808 5807
5825 5825 5824 5823 5822 5822 5821 5821 5820 5819 5819 5818 5818 5817 5816 5816 5815 5814 5814 5814 5814 5814 5814 5814 5814 5813 5813 5813 5812 5812 5811 5810 5810 5809 5808 5807 5807 5806 5805 5804 5804 5803 5802
5820 5820 5819 5818 5817 5817 5816 5815 5815 5814 5814 5813 5812 5812 5811 5810 5810 5809 5809 5809 5809 5809 5809 5809 5809 5808 5808 5808 5807 5807 5806 5805 5805 5804 5803 5802 5802 5801 5800 5799 5799 5798 5797
5815 5814 5814 5813 5812 5811 5810 5810 5810 5809 5808 5808 5807 5806 5805 5805 5804 5804 5804 5804 5804 5804 5804 5804 5804 5803 5803 5803 5802 5802 5801 5800 5799 5799 5798 5797 5796 5795 5795 5794 5793 5793 5792
5809 5808 5807 5807 5806 5805 5804 5804 5804 5803 5802 5802 5801 5800 5800 5799 5799 5799 5798 5798 5798 5798 5798 5798 5798 5798 5798 5797 5797 5796 5795 5794 5794 5793 5792 5791 5790 5790 5789 5788 5788 5787 5787
5802 5802 5801 5800 5799 5798 5798 5797 5797 5797 5796 5795 5794 5794 5793 5793 5793 5793 5792 5792 5792 5792 5792 5792 5792 5792 5792 5792 5791 5790 5789 5789 5788 5787 5786 5785 5784 5784 5783 5782 5782 5781 5780
5795 5794 5794 5793 5792 5792 5791 5791 5790 5790 5789 5788 5788 5787 5787 5786 5786 5786 5786 5786 5786 5786 5786 5786 5786 5785 5785 5785 5785 5784 5783 5782 5781 5780 5780 5779 5778 5777 5776 5776 5775 5775 5774
5787 5786 5786 5785 5785 5784 5784 5783 5783 5782 5781 5781 5780 5780 5780 5780 5780 5779 5779 5779 5779 5779 5780 5779 5779 5779 5779 5778 5778 5777 5776 5775 5775 5774 5773 5772 5771 5771 5770 5769 5769 5768 5768
5778 5778 5777 5777 5777 5776 5775 5775 5774 5774 5774 5773 5773 5772 5772 5772 5772 5772 5772 5772 5772 5772 5773 5772 5772 5772 5772 5771 5771 5770 5769 5768 5767 5767 5766 5765 5764 5763 5762 5762 5761 5761 5761
5769 5769 5769 5768 5768 5767 5766 5766 5766 5765 5765 5765 5764 5764 5764 5764 5764 5764 5764 5765 5765 5765 5765 5765 5765 5764 5764 5764 5763 5762 5761 5760 5760 5759 5758 5757 5756 5755 5755 5754 5754 5753 5753
5760 5760 5759 5759 5759 5758 5757 5757 5756 5756 5756 5756 5756 5756 5756 5756 5756 5756 5756 5756 5756 5757 5757 5757 5757 5756 5756 5755 5755 5754 5753 5752 5751 5751 5750 5749 5749 5748 5747 5747 5746 5745 5745
5750 5750 5749 5749 5749 5748 5748 5747 5747 5746 5746 5746 5746 5746 5746 5746 5746 5747 5747 5747 5748 5748 5748 5748 5748 5748 5747 5747 5746 5746 5745 5744 5743 5743 5742 5741 5740 5740 5739 5739 5738 5737 5736
5740 5739 5739 5739 5739 5738 5737 5737 5736 5736 5736 5736 5736 5736 5736 5736 5737 5737 5738 5738 5738 5738 5739 5739 5739 5739 5738 5738 5737 5737 5736 5735 5735 5734 5733 5733 5732 5731 5731 5730 5729 5729 5728
5729 5729 5728 5728 5728 5727 5727 5726 5726 5725 5725 5725 5725 5726 5726 5726 5726 5727 5728 5728 5728 5728 5729 5729 5729 5729 5729 5728 5728 5727 5726 5726 5725 5724 5724 5723 5722 5722 5722 5721 5720 5720 5719
5719 5718 5718 5717 5717 5716 5716 5715 5715 5715 5715 5715 5715 5715 5715 5715 5716 5716 5717 5717 5718 5718 5718 5718 5718 5718 5718 5718 5717 5717 5716 5716 5715 5715 5714 5713 5713 5713 5713 5712 5711 5711 5710